Weather History for Needles, CA

Change the Weather History Date:

Wednesday, March 20, 2013

  Actual Average Record
Temperature  
Mean Temperature 72 °F -  
Max Temperature 86 °F 78 °F 96 °F (2004)
Min Temperature 61 °F 51 °F 40 °F (1987)
Cooling Degree Days 8    
Growing Degree Days 22 (Base 50)    
Moisture  
Dew Point 29 °F    
Average Humidity 19    
Maximum Humidity 26    
Minimum Humidity 14    
Precipitation  
Precipitation 0.00 in - - ()
Sea Level Pressure  
Sea Level Pressure 29.82 in    
Wind  
Wind Speed 6 mph (WSW)    
Max Wind Speed 17 mph    
Max Gust Speed 25 mph    
Visibility 10 miles    
Events      
Averages and records for this station are not official NWS values.
T = Trace of Precipitation, MM = Missing Value Source: NWS Daily Summary

Daily Weather History Graph

Daily Weather History Graph

Search for Another Location

Airport:

Trip Planner

Search our weather history database for the weather conditions in past years. The results will help you decide how hot, cold, wet, or windy it might be!

Date:

Astronomy

Mar. 20, 2013 Rise Set
Actual Time 6:41 AM PDT 6:50 PM PDT
Civil Twilight 6:16 AM PDT 7:15 PM PDT
Nautical Twilight 5:47 AM PDT 7:45 PM PDT
Astronomical Twilight 5:17 AM PDT 8:14 PM PDT
Moon 12:41 PM PDT (3/20) 2:11 AM PDT (3/20)
Length of Visible Light 12h 59m
Length of Day
12h 08m
First Quarter, 60% of the Moon is Illuminated
Mar 20
First Quarter
Mar 27
Full
Apr 2
Last Quarter
Apr 10
New
Apr 18
First Quarter

Hourly Weather History & Observations

Time (PDT) Temp. Dew Point Humidity Pressure Visibility Wind Dir Wind Speed Gust Speed Precip Events Conditions
12:56 AM 66.9 °F 21.0 °F 17% 29.91 in 10.0 mi Calm Calm - N/A   Clear
1:56 AM 64.0 °F 21.9 °F 20% 29.91 in 10.0 mi NW 4.6 mph - N/A   Clear
2:56 AM 66.0 °F 26.1 °F 22% 29.90 in 10.0 mi Calm Calm - N/A   Clear
3:56 AM 64.0 °F 24.1 °F 22% 29.87 in 10.0 mi NW 4.6 mph - N/A   Clear
4:56 AM 63.0 °F 24.1 °F 23% 29.88 in 10.0 mi SW 4.6 mph - N/A   Clear
5:56 AM 63.0 °F 24.1 °F 23% 29.88 in 10.0 mi West 4.6 mph - N/A   Clear
6:56 AM 61.0 °F 26.1 °F 26% 29.90 in 10.0 mi Calm Calm - N/A   Clear
7:56 AM 64.9 °F 26.1 °F 23% 29.91 in 10.0 mi SW 4.6 mph - N/A   Clear
8:56 AM 68.0 °F 28.0 °F 22% 29.91 in 10.0 mi ENE 3.5 mph - N/A   Clear
9:56 AM 73.9 °F 30.0 °F 20% 29.90 in 10.0 mi East 4.6 mph - N/A   Clear
10:56 AM 81.0 °F 28.0 °F 14% 29.87 in 10.0 mi ESE 5.8 mph - N/A   Clear
11:56 AM 84.0 °F 30.9 °F 15% 29.85 in 10.0 mi SW 15.0 mph - N/A   Clear
12:56 PM 84.9 °F 30.9 °F 14% 29.83 in 10.0 mi SW 16.1 mph 21.9 mph N/A   Clear
1:56 PM 84.0 °F 32.0 °F 15% 29.81 in 10.0 mi SW 12.7 mph 19.6 mph N/A   Clear
2:56 PM 84.9 °F 32.0 °F 15% 29.77 in 10.0 mi SSW 17.3 mph 25.3 mph N/A   Clear
3:56 PM 84.9 °F 32.0 °F 15% 29.76 in 10.0 mi WSW 9.2 mph 19.6 mph N/A   Clear
4:56 PM 84.9 °F 32.0 °F 15% 29.74 in 10.0 mi SW 11.5 mph 18.4 mph N/A   Clear
5:56 PM 84.0 °F 32.0 °F 15% 29.73 in 10.0 mi SSW 10.4 mph - N/A   Clear
6:17 PM 84.2 °F 30.2 °F 14% 29.81 in 10.0 mi WNW 13.8 mph 19.6 mph N/A   Clear
6:56 PM 82.9 °F 30.9 °F 15% 29.74 in 10.0 mi West 6.9 mph - N/A   Clear
7:56 PM 81.0 °F 30.0 °F 16% 29.73 in 10.0 mi West 11.5 mph - N/A   Clear
8:56 PM 80.1 °F 33.1 °F 18% 29.73 in 10.0 mi West 12.7 mph - N/A   Clear
9:56 PM 79.0 °F 35.1 °F 20% 29.71 in 10.0 mi West 16.1 mph - N/A   Clear
10:56 PM 77.0 °F 35.1 °F 22% 29.70 in 10.0 mi West 11.5 mph - N/A   Clear
11:56 PM 73.0 °F 35.1 °F 25% 29.70 in 10.0 mi WNW 8.1 mph - N/A   Clear